Weather home | Your neighborhood | Marine | Radar | Hurricane | Almanac

Daily weather history


Statistical History for Thursday, September 14, 2017

Tampa Knight Airport, FL


  Actual Average (KTPA) Record (KTPA)
Temperature
Mean Temperature -  
Max Temperature 87 °F 95 °F (1986)
Min Temperature 73 °F 67 °F (1968)
Cooling Degree Days    
Growing Degree Days 36 (Base - )  
Moisture
Dew Point   
Average Humidity    
Maximum Humidity    
Minimum Humidity    
Precipitation
Precipitation - - ()
Wind
Wind Speed   
Max Wind Speed   
Max Gust Speed   
Visibility   
Events   
Averages and records for this station are not official NWS values.
Key: T is trace of precipitation, MM is missing value
Source: NWS Daily Summary
Seasonal Weather Averages
Time(EDT)TemperatureDew PointHumidity Sea Level Pressure Visibility Wind DirectionWind SpeedGust SpeedPrecipitationEventsConditions
12:15 AM 80.6 °F 78.8 °F 94% 29.96 in 10.0 miles Calm Calm - N/A   Mostly Cloudy
12:35 AM 80.6 °F 80.6 °F 100% 29.96 in 10.0 miles Calm Calm - N/A   Overcast
12:55 AM 78.8 °F 78.8 °F 100% 29.96 in 10.0 miles Calm Calm - N/A   Overcast
1:15 AM 80.6 °F 80.6 °F 100% 29.96 in 10.0 miles Calm Calm - N/A   Overcast
1:35 AM 78.8 °F 78.8 °F 100% 29.95 in 10.0 miles Calm Calm - N/A   Overcast
1:55 AM - - N/A% 29.95 in 10.0 miles Calm Calm - N/A   Overcast
2:15 AM 78.8 °F 78.8 °F 100% 29.94 in 10.0 miles Calm Calm - N/A   Overcast
2:35 AM 78.8 °F 78.8 °F 100% 29.94 in 10.0 miles Calm Calm - N/A   Overcast
2:55 AM 78.8 °F 78.8 °F 100% 29.94 in 10.0 miles Calm Calm - N/A   Overcast
3:15 AM 78.8 °F 78.8 °F 100% 29.94 in 10.0 miles Calm Calm - N/A   Overcast
3:35 AM 78.8 °F 78.8 °F 100% 29.94 in 10.0 miles East 3.5 mph - N/A   Overcast
3:55 AM 78.8 °F 78.8 °F 100% 29.94 in 10.0 miles East 3.5 mph - N/A   Mostly Cloudy
4:15 AM 78.8 °F 78.8 °F 100% 29.94 in 10.0 miles ENE 4.6 mph - N/A   Scattered Clouds
4:35 AM - - N/A% 29.94 in 10.0 miles Calm Calm - N/A   Clear
4:55 AM - - N/A% 29.94 in 10.0 miles Calm Calm - N/A   Clear
5:15 AM - - N/A% 29.94 in 10.0 miles East 3.5 mph - N/A   Clear
5:35 AM - - N/A% 29.95 in 10.0 miles East 3.5 mph - N/A   Clear
5:55 AM - - N/A% 29.95 in 10.0 miles East 3.5 mph - N/A   Clear
6:15 AM - - N/A% 29.96 in 10.0 miles ENE 3.5 mph - N/A   Clear
6:35 AM - - N/A% 29.96 in 10.0 miles ENE 4.6 mph - N/A   Scattered Clouds
6:55 AM - - N/A% 29.96 in 10.0 miles ENE 3.5 mph - N/A   Scattered Clouds
7:15 AM - - N/A% 29.97 in 10.0 miles Calm Calm - N/A   Mostly Cloudy
7:35 AM - - N/A% 29.97 in 10.0 miles ENE 4.6 mph - N/A   Overcast
7:55 AM 78.8 °F 78.8 °F 100% 29.98 in 10.0 miles East 4.6 mph - N/A   Overcast
8:15 AM 78.8 °F 78.8 °F 100% 29.98 in 10.0 miles East 4.6 mph - N/A   Mostly Cloudy
8:35 AM 80.6 °F 80.6 °F 100% 29.99 in 10.0 miles East 5.8 mph - N/A   Mostly Cloudy
8:55 AM 80.6 °F 80.6 °F 100% 29.99 in 10.0 miles ENE 5.8 mph - N/A   Mostly Cloudy
9:15 AM 82.4 °F 80.6 °F 94% 30.00 in 10.0 miles East 4.6 mph - N/A   Overcast
9:35 AM 82.4 °F 78.8 °F 89% 30.00 in 10.0 miles East 4.6 mph - N/A   Overcast
9:55 AM 82.4 °F 80.6 °F 94% 30.01 in 10.0 miles East 3.5 mph - N/A   Overcast
10:15 AM 86.0 °F 78.8 °F 79% 30.01 in 10.0 miles East 4.6 mph - N/A   Mostly Cloudy
10:35 AM 87.8 °F 78.8 °F 75% 30.02 in 10.0 miles NE 4.6 mph - N/A   Mostly Cloudy
10:55 AM 87.8 °F 78.8 °F 75% 30.02 in 10.0 miles Calm Calm - N/A   Scattered Clouds
11:15 AM 87.8 °F 78.8 °F 75% 30.02 in 10.0 miles South 4.6 mph - N/A   Scattered Clouds
11:35 AM 87.8 °F 78.8 °F 75% 30.01 in 10.0 miles South 3.5 mph - N/A   Mostly Cloudy
11:55 AM 87.8 °F 78.8 °F 75% 30.01 in 10.0 miles SSW 5.8 mph - N/A   Overcast
12:15 PM 87.8 °F 78.8 °F 75% 30.00 in 10.0 miles SSW 5.8 mph - N/A   Mostly Cloudy
12:35 PM 89.6 °F 78.8 °F 70% 30.00 in 10.0 miles SW 4.6 mph - N/A   Scattered Clouds
12:55 PM 89.6 °F 77.0 °F 66% 30.00 in 10.0 miles South 3.5 mph - N/A   Scattered Clouds
1:15 PM 89.6 °F 77.0 °F 66% 29.99 in 10.0 miles South 3.5 mph - N/A   Mostly Cloudy
1:35 PM 89.6 °F 78.8 °F 70% 29.98 in 10.0 miles SSW 3.5 mph - N/A   Mostly Cloudy
1:55 PM 89.6 °F 77.0 °F 66% 29.97 in 10.0 miles SSW 3.5 mph - N/A   Clear
2:15 PM 89.6 °F 77.0 °F 66% 29.96 in 10.0 miles Calm Calm - N/A   Clear
2:35 PM 89.6 °F 77.0 °F 66% 29.96 in 10.0 miles South 3.5 mph - N/A   Clear
2:55 PM 91.4 °F 78.8 °F 66% 29.95 in 10.0 miles SSW 3.5 mph - N/A   Clear
3:15 PM 91.4 °F 77.0 °F 63% 29.94 in 10.0 miles South 4.6 mph - N/A   Scattered Clouds
3:35 PM 91.4 °F 77.0 °F 63% 29.93 in 10.0 miles SW 4.6 mph - N/A   Scattered Clouds
3:55 PM 93.2 °F 75.2 °F 56% 29.93 in 10.0 miles West 3.5 mph - N/A   Scattered Clouds
4:15 PM 93.2 °F 77.0 °F 59% 29.92 in 10.0 miles WNW 5.8 mph - N/A   Scattered Clouds
4:35 PM 93.2 °F 75.2 °F 56% 29.93 in 10.0 miles West 6.9 mph - N/A   Mostly Cloudy
4:55 PM 86.0 °F 75.2 °F 70% 29.95 in 10.0 miles WSW 8.1 mph - N/A   Mostly Cloudy
5:15 PM 82.4 °F 75.2 °F 79% 29.97 in 10.0 miles SW 6.9 mph - N/A   Overcast
5:35 PM 78.8 °F 78.8 °F 100% 29.97 in 3.0 miles WNW 5.8 mph - 0.10 in Rain Light Rain
5:55 PM - - N/A% 29.96 in 4.0 miles West 3.5 mph - 0.19 in Rain Rain
6:15 PM - - N/A% 29.96 in 5.0 miles Calm Calm - 0.01 in Rain Rain
6:35 PM - - N/A% 29.95 in 10.0 miles Calm Calm - 0.01 in   Mostly Cloudy
6:55 PM - - N/A% 29.96 in 10.0 miles Calm Calm - 0.01 in   Scattered Clouds
7:15 PM - - N/A% 29.96 in 10.0 miles Calm Calm - N/A   Mostly Cloudy
7:35 PM - - N/A% 29.96 in 10.0 miles NE 3.5 mph - N/A   Mostly Cloudy
7:55 PM - - N/A% 29.97 in 10.0 miles Calm Calm - N/A   Mostly Cloudy
8:15 PM - - N/A% 29.96 in 10.0 miles Calm Calm - N/A   Overcast
8:35 PM - - N/A% 29.97 in 10.0 miles Calm Calm - N/A   Mostly Cloudy
8:55 PM - - N/A% 29.98 in 10.0 miles Calm Calm - N/A   Mostly Cloudy
9:15 PM - - N/A% 29.99 in 10.0 miles Calm Calm - N/A   Mostly Cloudy
9:35 PM - - N/A% 29.99 in 10.0 miles East 3.5 mph - N/A   Mostly Cloudy
9:55 PM - - N/A% 29.98 in 10.0 miles East 3.5 mph - N/A   Mostly Cloudy
10:15 PM - - N/A% 29.98 in 10.0 miles Calm Calm - N/A   Mostly Cloudy
10:35 PM - - N/A% 29.99 in 10.0 miles East 3.5 mph - N/A   Mostly Cloudy
10:55 PM - - N/A% 29.99 in 10.0 miles East 5.8 mph - N/A   Mostly Cloudy
11:15 PM - - N/A% 30.00 in 10.0 miles East 12.7 mph - N/A   Mostly Cloudy
11:35 PM - - N/A% 29.99 in 10.0 miles ESE 11.5 mph - N/A   Mostly Cloudy
11:55 PM 78.8 °F 78.8 °F 100% 29.98 in 10.0 miles ESE 10.4 mph - N/A   Mostly Cloudy
ADVERTISEMENT
Enter city or zip code to search weather conditions:


  • 490 First Avenue South
  • St. Petersburg, FL 33701
  • 727-893-8111